Other Surface Observations
Issued by NWS Upton, NY

Home | Current Version | Previous Version | Text Only | Print | Product List | Glossary On
Versions: 1 2 3 4 5 6 7 8 9 10 11 12 13 14 15 16 17 18 19 20 21 22 23 24 25 26 27 28 29 30 31 32 33 34 35 36 37 38 39 40 41 42 43 44 45 46 47 48 49 50
740
SXUS51 KOKX 251357
OSOOKX
New York City Metropolitan Area Weather Roundup
National Weather Service New York NY
900 AM EST SUN FEB 25 2018

CITY           SKY/WX    TMP DP  RH WIND       PRES   REMARKS
Central Park   LGT RAIN  41  39  93 E9        30.09F FOG
LaGuardia Arpt LGT RAIN  40  38  93 NE15      30.08F FOG     WCI  32
Kennedy Intl   LGT RAIN  42  41  96 E21       30.07F FOG
Newark Liberty RAIN      43  41  93 E9        30.07F
Teterboro Arpt LGT RAIN  41  38  89 NE10G21   30.07F FOG
Bronx Bot Gard   N/A     39  37  93 E10       30.10F WCI  32
Bronx Lehman C   N/A     39  37  93 E16         N/A  WCI  30
Queens College   N/A     43  39  87 E12         N/A
Breezy Point     N/A     41 N/A N/A NE20G30     N/A
Brooklyn Coll    N/A     43  39  87 NE13        N/A
Staten Island    N/A     43  41  93 E13G24      N/A

>>>>>>>>>>>>>>>>>>>>>>>>>>>>>>>>> KEY <<<<<<<<<<<<<<<<<<<<<<<<<<<<<<<
> SKY/WX - Sky Condition/Present    : R : WCI - Wind Chill Index    <
>          Weather                  : E : VSB - Visibility in Miles <
> TMP    - Temperature in Deg F     : M : HX  - Heat Index          <
> DP     - Dew Point Temperature    : A : TC  - Temperature in      <
> RH     - Relative Humidity        : R :       Celsius             <
> WIND   - Direction/Speed (mph)    : K : VRB - Variable Wind Dir   <
> PRES   - Pressure (in Hg)         : S :                           <
>>>>>>>>>>>>>>>>>>>>>>>>>>>>>>>>> KEY <<<<<<<<<<<<<<<<<<<<<<<<<<<<<<<




USA.gov is the U.S. government's official web portal to all federal, state and local government web resources and services.